Change the Weather History Date:

Thursday, April 19, 2012

  Actual Average Record
Temperature  
Mean Temperature 35 °F -  
Max Temperature 44 °F 52 °F 67 °F (2013)
Min Temperature 26 °F 35 °F 21 °F (2009)
Degree Days  
Heating Degree Days 30    
Moisture  
Dew Point 26 °F    
Average Humidity 71    
Maximum Humidity 93    
Minimum Humidity 36    
Precipitation  
Precipitation 0.00 in 0.12 in - ()
Sea Level Pressure  
Sea Level Pressure 30.15 in    
Wind  
Wind Speed 5 mph ()    
Max Wind Speed 12 mph    
Max Gust Speed 17 mph    
Visibility 15.0 miles    
Events      
Averages and records for this station are not official NWS values.
T = Trace of Precipitation, MM = Missing Value Source: Averaged Metar Reports

Daily Weather History Graph

Daily Weather History Graph

Search for Another Location

Airport or City:

Trip Planner

Search our weather history database for the weather conditions in past years. The results will help you decide how hot, cold, wet, or windy it might be!

Date:

Astronomy

Apr. 19, 2012 Rise Set
Actual Time 6:17 AM ADT 8:05 PM ADT
Civil Twilight 5:46 AM ADT 8:37 PM ADT
Nautical Twilight 5:07 AM ADT 9:17 PM ADT
Astronomical Twilight 4:24 AM ADT 10:00 PM ADT
Moon 5:13 AM ADT (4/19) 6:47 PM ADT (4/19)
Length of Visible Light 14h 51m
Length of Day
13h 48m
Waning Crescent, 3% of the Moon is Illuminated
Apr 19
Waning Crescent
Apr 21
New
Apr 29
First Quarter
May 6
Full
May 12
Last Quarter

Hourly Weather History & Observations

Time (ADT) Temp. Windchill Dew Point Humidity Pressure Visibility Wind Dir Wind Speed Gust Speed Precip Events Conditions
12:00 AM 28.4 °F 24.6 °F 26.6 °F 93% 30.22 in 15.0 mi North 3.5 mph - N/A   Partly Cloudy
1:00 AM 35.6 °F - 26.6 °F 70% 30.21 in 15.0 mi ENE 2.3 mph - N/A   Partly Cloudy
2:00 AM 26.6 °F 21.2 °F 24.8 °F 93% 30.20 in 15.0 mi NNE 4.6 mph - N/A   Partly Cloudy
3:00 AM 27 °F - 25 °F 88% 30.19 in 15 mi North 4.6 mph - -   Clear
3:00 AM 26.6 °F 21.2 °F 24.8 °F 93% 30.19 in 15.0 mi North 4.6 mph - N/A   Partly Cloudy
4:00 AM 28.4 °F 23.3 °F 24.8 °F 86% 30.19 in 15.0 mi North 4.6 mph - N/A   Partly Cloudy
5:00 AM 26.6 °F 22.6 °F 24.8 °F 93% 30.18 in 15.0 mi North 3.5 mph - N/A   Partly Cloudy
6:00 AM 26.6 °F 20.0 °F 24.8 °F 93% 30.19 in 15.0 mi North 5.8 mph - N/A   Scattered Clouds
7:00 AM 28.4 °F 24.6 °F 26.6 °F 93% 30.19 in 15.0 mi North 3.5 mph - N/A   Scattered Clouds
8:00 AM 33.8 °F 28.6 °F 30.2 °F 87% 30.19 in 15.0 mi North 5.8 mph - N/A   Scattered Clouds
9:00 AM 37 °F - 29 °F 64% 30.19 in 15 mi NE 6.9 mph - -   Scattered Clouds
9:00 AM 37.4 °F 32.1 °F 28.4 °F 70% 30.19 in 15.0 mi NE 6.9 mph - N/A   Mostly Cloudy
10:00 AM 41.0 °F 37.1 °F 26.6 °F 57% 30.19 in 15.0 mi NE 5.8 mph - N/A   Mostly Cloudy
11:00 AM 42.8 °F 38.0 °F 26.6 °F 53% 30.19 in 15.0 mi ENE 8.1 mph - N/A   Mostly Cloudy
12:00 PM 44.6 °F 39.2 °F 26.6 °F 49% 30.17 in 15.0 mi NNE 10.4 mph 17.3 mph N/A   Mostly Cloudy
1:00 PM 42.8 °F 37.5 °F 24.8 °F 49% 30.15 in 15.0 mi NNE 9.2 mph - N/A   Mostly Cloudy
2:00 PM 44.6 °F 38.8 °F 24.8 °F 46% 30.14 in 15.0 mi NNE 11.5 mph - N/A   Mostly Cloudy
3:00 PM 43 °F - 25 °F 36% 30.12 in 15 mi NNE 6.9 mph - -   Scattered Clouds
3:00 PM 42.8 °F 38.6 °F 24.8 °F 49% 30.12 in 15.0 mi NNE 6.9 mph - N/A   Mostly Cloudy
4:00 PM 42.8 °F 38.6 °F 26.6 °F 53% 30.10 in 15.0 mi ENE 6.9 mph - N/A   Mostly Cloudy
5:00 PM 42.8 °F 37.5 °F 26.6 °F 53% 30.09 in 15.0 mi NNE 9.2 mph - N/A   Mostly Cloudy
6:00 PM 41.0 °F 35.2 °F 24.8 °F 53% 30.09 in 15.0 mi NNE 9.2 mph - N/A   Scattered Clouds
7:00 PM 37.4 °F 31.4 °F 26.6 °F 65% 30.08 in 15.0 mi NE 8.1 mph - N/A   Scattered Clouds
8:00 PM 33.8 °F 27.7 °F 26.6 °F 75% 30.08 in 15.0 mi NE 6.9 mph - N/A   Partly Cloudy
8:20 PM 32.0 °F 27.5 °F - N/A% - 15.0 mi NE 4.6 mph - N/A   Partly Cloudy
9:00 PM 30 °F - 26 °F 80% 30.09 in 15 mi NNE 3.5 mph - -   Scattered Clouds
9:00 PM 30.2 °F 26.7 °F 26.6 °F 86% 30.09 in 15.0 mi NNE 3.5 mph - N/A   Partly Cloudy
10:00 PM 30.2 °F 26.7 °F 26.6 °F 86% 30.07 in 15.0 mi East 3.5 mph - N/A   Partly Cloudy
11:00 PM 32.0 °F - 28.4 °F 87% 30.06 in 15.0 mi SE 2.3 mph - N/A   Partly Cloudy